• In Belarus
  • List of Countries
  • For 7 days
  • Water Temperature
  • Satellite Maps
  • Weather Map
  • Weather Widgets
  • user-avatar
    Login

    Hourly Weather Klyukino

    Today, 20 April, Friday

    Time Temperature Precipitation Wind Pressure Humidity
    00:00 +5°C° 0 mm 3 mps 746 mmHg 88%
    01:00 +4°C° 0 mm 3 mps 747 mmHg 91%
    02:00 +4°C° 0 mm 3 mps 747 mmHg 94%
    03:00 +3°C° 0 mm 3 mps 747 mmHg 94%
    04:00 +3°C° 0 mm 3 mps 748 mmHg 95%
    05:00 +3°C° 0 mm 3 mps 748 mmHg 95%
    06:00 +3°C° 0 mm 3 mps 748 mmHg 88%
    07:00 +4°C° 0 mm 3 mps 749 mmHg 81%
    08:00 +5°C° 0 mm 3 mps 749 mmHg 74%
    09:00 +7°C° 0 mm 3 mps 749 mmHg 69%
    10:00 +8°C° 0 mm 3 mps 749 mmHg 64%
    11:00 +9°C° 0 mm 3 mps 749 mmHg 58%
    12:00 +9°C° 0 mm 3 mps 749 mmHg 58%
    13:00 +10°C° 0 mm 3 mps 749 mmHg 58%
    14:00 +10°C° 0 mm 3 mps 749 mmHg 57%
    15:00 +10°C° 0 mm 2 mps 748 mmHg 59%
    16:00 +10°C° 0 mm 2 mps 748 mmHg 60%
    17:00 +11°C° 0 mm 1 mps 747 mmHg 62%
    18:00 +9°C° 0.1 mm 2 mps 747 mmHg 68%
    19:00 +8°C° 0.1 mm 2 mps 746 mmHg 73%
    20:00 +7°C° 0.1 mm 2 mps 746 mmHg 79%
    21:00 +7°C° 0.2 mm 3 mps 745 mmHg 80%
    22:00 +7°C° 0.2 mm 3 mps 744 mmHg 81%
    23:00 +6°C° 0.2 mm 4 mps 743 mmHg 83%

    Tomorrow, 21 April, Saturday

    Time Temperature Precipitation Wind Pressure Humidity
    00:00 +6°C° 0.2 mm 4 mps 742 mmHg 83%
    01:00 +7°C° 0.2 mm 5 mps 741 mmHg 83%
    02:00 +7°C° 0.2 mm 5 mps 740 mmHg 84%
    03:00 +7°C° 0.2 mm 5 mps 738 mmHg 85%
    04:00 +7°C° 0.2 mm 5 mps 737 mmHg 86%
    05:00 +7°C° 0.2 mm 5 mps 736 mmHg 88%
    06:00 +8°C° 0.2 mm 5 mps 735 mmHg 88%
    07:00 +8°C° 0.2 mm 5 mps 734 mmHg 88%
    08:00 +9°C° 0.2 mm 5 mps 733 mmHg 88%
    09:00 +9°C° 1.4 mm 5 mps 732 mmHg 87%
    10:00 +9°C° 1.4 mm 5 mps 731 mmHg 87%
    11:00 +9°C° 1.4 mm 5 mps 730 mmHg 87%
    12:00 +9°C° 0.7 mm 5 mps 729 mmHg 87%
    13:00 +9°C° 0.7 mm 5 mps 728 mmHg 87%
    14:00 +10°C° 0.7 mm 5 mps 727 mmHg 87%
    15:00 +9°C° 0.4 mm 6 mps 726 mmHg 83%
    16:00 +8°C° 0.4 mm 7 mps 726 mmHg 79%
    17:00 +7°C° 0.4 mm 8 mps 726 mmHg 75%
    18:00 +6°C° 0.3 mm 8 mps 726 mmHg 76%
    19:00 +5°C° 0.3 mm 9 mps 727 mmHg 78%
    20:00 +3°C° 0.3 mm 9 mps 727 mmHg 80%
    21:00 +2°C° 0.6 mm 9 mps 727 mmHg 80%
    22:00 +1°C° 0.6 mm 9 mps 728 mmHg 81%
    23:00 +1°C° 0.6 mm 9 mps 729 mmHg 81%

    Day after tomorrow, 22 April, Sunday

    Time Temperature Precipitation Wind Pressure Humidity
    00:00 0°C° 0.2 mm 9 mps 729 mmHg 81%
    01:00 0°C° 0.2 mm 8 mps 730 mmHg 81%
    02:00 -1°C° 0.2 mm 8 mps 731 mmHg 81%
    03:00 -1°C° 0.1 mm 7 mps 732 mmHg 81%
    04:00 -1°C° 0.1 mm 7 mps 733 mmHg 80%
    05:00 -2°C° 0.1 mm 7 mps 733 mmHg 80%
    06:00 -2°C° 0 mm 7 mps 734 mmHg 78%
    07:00 -2°C° 0 mm 7 mps 735 mmHg 76%
    08:00 -1°C° 0 mm 6 mps 736 mmHg 74%
    09:00 -1°C° 0 mm 6 mps 736 mmHg 72%
    10:00 -1°C° 0 mm 6 mps 737 mmHg 70%
    11:00 -1°C° 0 mm 6 mps 737 mmHg 68%
    12:00 +1°C° 0 mm 6 mps 738 mmHg 66%
    13:00 +1°C° 0 mm 6 mps 738 mmHg 65%
    14:00 +1°C° 0 mm 5 mps 739 mmHg 63%
    15:00 +1°C° 0 mm 5 mps 739 mmHg 63%
    16:00 0°C° 0 mm 5 mps 739 mmHg 63%
    17:00 0°C° 0 mm 5 mps 740 mmHg 63%
    18:00 0°C° 0 mm 4 mps 740 mmHg 66%
    19:00 0°C° 0 mm 3 mps 741 mmHg 69%
    20:00 0°C° 0 mm 3 mps 741 mmHg 72%
    21:00 -1°C° 0 mm 3 mps 741 mmHg 74%
    22:00 -1°C° 0 mm 3 mps 741 mmHg 76%
    23:00 -2°C° 0 mm 3 mps 742 mmHg 78%

    23 April, Monday

    Time Temperature Precipitation Wind Pressure Humidity
    00:00 -2°C° 0 mm 3 mps 742 mmHg 80%
    01:00 -4°C° 0 mm 3 mps 742 mmHg 82%
    02:00 -4°C° 0 mm 3 mps 743 mmHg 84%
    03:00 -4°C° 0 mm 3 mps 743 mmHg 83%
    04:00 -4°C° 0 mm 3 mps 743 mmHg 82%
    05:00 -4°C° 0 mm 3 mps 744 mmHg 81%
    06:00 -2°C° 0 mm 3 mps 744 mmHg 71%
    07:00 -2°C° 0 mm 4 mps 744 mmHg 61%
    08:00 0°C° 0 mm 4 mps 744 mmHg 51%
    09:00 +1°C° 0 mm 4 mps 745 mmHg 49%
    10:00 +1°C° 0 mm 4 mps 745 mmHg 47%
    11:00 +3°C° 0 mm 4 mps 745 mmHg 45%
    12:00 +3°C° 0 mm 4 mps 745 mmHg 44%
    13:00 +4°C° 0 mm 4 mps 745 mmHg 44%
    14:00 +4°C° 0 mm 4 mps 745 mmHg 44%
    15:00 +4°C° 0 mm 4 mps 745 mmHg 46%
    16:00 +3°C° 0 mm 3 mps 745 mmHg 48%
    17:00 +3°C° 0 mm 3 mps 745 mmHg 50%
    18:00 +3°C° 0 mm 2 mps 745 mmHg 56%
    19:00 +2°C° 0 mm 2 mps 745 mmHg 62%
    20:00 +2°C° 0 mm 1 mps 746 mmHg 67%
    21:00 +1°C° 0 mm 1 mps 746 mmHg 70%
    22:00 0°C° 0 mm 1 mps 746 mmHg 72%
    23:00 0°C° 0 mm 1 mps 746 mmHg 75%

    24 April, Tuesday

    Time Temperature Precipitation Wind Pressure Humidity
    00:00 -1°C° 0 mm 1 mps 746 mmHg 76%
    01:00 -1°C° 0 mm 1 mps 746 mmHg 77%
    02:00 -1°C° 0 mm 1 mps 746 mmHg 78%
    03:00 -2°C° 0 mm 0 mps 746 mmHg 77%
    04:00 -2°C° 0 mm 0 mps 746 mmHg 76%
    05:00 -2°C° 0 mm 0 mps 746 mmHg 75%
    06:00 0°C° 0 mm 0 mps 746 mmHg 67%
    07:00 +2°C° 0 mm 0 mps 746 mmHg 59%
    08:00 +5°C° 0 mm 1 mps 746 mmHg 51%
    09:00 +5°C° 0 mm 1 mps 746 mmHg 48%
    10:00 +6°C° 0 mm 1 mps 746 mmHg 45%
    11:00 +7°C° 0 mm 1 mps 746 mmHg 41%
    12:00 +8°C° 0 mm 1 mps 745 mmHg 41%
    13:00 +8°C° 0 mm 1 mps 745 mmHg 40%
    14:00 +8°C° 0 mm 1 mps 745 mmHg 39%
    15:00 +7°C° 0 mm 2 mps 744 mmHg 41%
    16:00 +7°C° 0 mm 2 mps 744 mmHg 43%
    17:00 +7°C° 0 mm 2 mps 744 mmHg 44%
    18:00 +5°C° 0 mm 2 mps 744 mmHg 51%
    19:00 +3°C° 0 mm 2 mps 744 mmHg 58%
    20:00 +1°C° 0 mm 3 mps 744 mmHg 65%
    21:00 0°C° 0 mm 3 mps 744 mmHg 66%
    22:00 0°C° 0 mm 3 mps 744 mmHg 68%
    23:00 -1°C° 0 mm 3 mps 744 mmHg 70%

    25 April, Wednesday

    Time Temperature Precipitation Wind Pressure Humidity
    00:00 -1°C° 0 mm 3 mps 744 mmHg 71%
    01:00 -1°C° 0 mm 3 mps 744 mmHg 72%
    02:00 -2°C° 0 mm 3 mps 743 mmHg 73%
    03:00 -1°C° 0 mm 3 mps 743 mmHg 72%
    04:00 -1°C° 0 mm 3 mps 743 mmHg 71%
    05:00 -1°C° 0 mm 3 mps 743 mmHg 70%
    06:00 +1°C° 0 mm 3 mps 743 mmHg 64%
    07:00 +3°C° 0 mm 4 mps 743 mmHg 58%
    08:00 +5°C° 0 mm 4 mps 743 mmHg 51%
    09:00 +6°C° 0 mm 4 mps 743 mmHg 49%
    10:00 +8°C° 0 mm 5 mps 743 mmHg 46%
    11:00 +9°C° 0 mm 5 mps 743 mmHg 43%
    12:00 +9°C° 0 mm 5 mps 742 mmHg 47%
    13:00 +9°C° 0 mm 5 mps 742 mmHg 51%
    14:00 +9°C° 0 mm 5 mps 742 mmHg 54%
    15:00 +8°C° 0 mm 5 mps 741 mmHg 59%
    16:00 +8°C° 0 mm 5 mps 741 mmHg 64%
    17:00 +7°C° 0 mm 4 mps 741 mmHg 68%
    18:00 +7°C° 0 mm 4 mps 741 mmHg 75%
    19:00 +6°C° 0 mm 4 mps 740 mmHg 81%
    20:00 +5°C° 0 mm 4 mps 740 mmHg 87%
    21:00 +5°C° 0 mm 4 mps 740 mmHg 88%
    22:00 +5°C° 0 mm 4 mps 739 mmHg 89%
    23:00 +5°C° 0 mm 4 mps 739 mmHg 90%
    Show more